9A5BAA Weather Reports


time (UTC)temp
C
wind
direction
speed
KPH
gust
KPH
rain 1hr
cm
rain 24hr
cm
rain mn
cm
humidity
%
barometer
mb
20260503230534 12 30 1.6 12.9 0.00 0.00 0.00 49 1018.0
20260503230107 12 39 6.4 14.5 0.00 0.00 0.00 49 1018.0
20260503225527 12 50 8.0 14.5 0.00 0.00 0.00 48 1018.0
20260503225027 12 70 9.7 14.5 0.00 0.00 0.00 49 1018.1
20260503224546 12 58 8.0 12.9 0.00 0.00 0.00 48 1018.0
20260503224029 12 62 8.0 12.9 0.00 0.00 0.00 50 1018.0
20260503223528 12 60 6.4 12.9 0.00 0.00 0.00 51 1018.0
20260503223042 12 63 4.8 8.0 0.00 0.00 0.00 53 1018.1
20260503222527 11 53 0.0 6.4 0.00 0.00 0.00 57 1017.9
20260503222027 11 0 0.0 0.0 0.00 0.00 0.00 57 1018.1
20260503221540 11 0 0.0 3.2 0.00 0.00 0.00 55 1018.1
20260503221027 12 0 0.0 8.0 0.00 0.00 0.00 51 1018.0
20260503220527 13 53 1.6 8.0 0.00 0.00 0.00 46 1017.8
20260503220050 14 60 3.2 11.3 0.00 0.00 0.00 46 1017.9
20260503215526 13 82 6.4 11.3 0.00 0.00 0.00 46 1017.8
20260503215027 14 79 8.0 11.3 0.00 0.00 0.00 46 1017.8
20260503214544 14 82 6.4 11.3 0.00 0.00 0.00 46 1017.8
20260503214030 14 74 6.4 12.9 0.00 0.00 0.00 46 1017.7
20260503213528 13 69 8.0 12.9 0.00 0.00 0.00 47 1017.7
20260503213041 13 64 8.0 14.5 0.00 0.00 0.00 48 1017.9
20260503212528 13 89 8.0 14.5 0.00 0.00 0.00 49 1017.9
20260503212027 14 86 4.8 9.7 0.00 0.00 0.00 47 1017.8
20260503211540 14 82 3.2 6.4 0.00 0.00 0.00 46 1017.9
20260503211027 14 71 3.2 6.4 0.00 0.00 0.00 46 1017.9
20260503210527 14 72 3.2 8.0 0.00 0.00 0.00 46 1017.8
20260503210041 14 44 3.2 9.7 0.00 0.00 0.00 46 1017.9
20260503205529 15 44 3.2 11.3 0.00 0.00 0.00 46 1017.9
20260503205027 15 73 3.2 11.3 0.00 0.00 0.00 46 1017.7
20260503204546 15 70 4.8 11.3 0.00 0.00 0.00 47 1017.8
20260503204027 14 49 4.8 9.7 0.00 0.00 0.00 48 1017.8
20260503203527 15 70 4.8 9.7 0.00 0.00 0.00 49 1017.8
20260503203105 14 355 4.8 11.3 0.00 0.00 0.00 50 1017.7
20260503202528 13 45 4.8 11.3 0.00 0.00 0.00 51 1017.8
20260503202028 13 50 4.8 8.0 0.00 0.00 0.00 53 1017.7
20260503201549 13 36 3.2 6.4 0.00 0.00 0.00 54 1017.7
20260503201031 13 26 1.6 3.2 0.00 0.00 0.00 57 1017.7
20260503200528 12 26 1.6 3.2 0.00 0.00 0.00 61 1017.6
20260503200040 11 25 1.6 3.2 0.00 0.00 0.00 65 1017.7
20260503195525 11 286 1.6 4.8 0.00 0.00 0.00 68 1017.6
20260503195025 11 286 0.0 4.8 0.00 0.00 0.00 68 1017.6
20260503194543 11 286 3.2 4.8 0.00 0.00 0.00 68 1017.7
20260503194025 11 286 3.2 4.8 0.00 0.00 0.00 67 1017.7
20260503193525 11 286 0.0 4.8 0.00 0.00 0.00 67 1017.7
20260503193046 11 0 0.0 0.0 0.00 0.00 0.00 67 1017.6
20260503192526 11 0 0.0 0.0 0.00 0.00 0.00 67 1017.6
20260503192026 11 0 0.0 0.0 0.00 0.00 0.00 67 1017.6
20260503191547 11 0 0.0 0.0 0.00 0.00 0.00 67 1017.6
20260503191027 11 0 0.0 0.0 0.00 0.00 0.00 66 1017.6
20260503190526 11 0 0.0 0.0 0.00 0.00 0.00 66 1017.6
20260503190044 12 0 0.0 0.0 0.00 0.00 0.00 64 1017.4
20260503185528 12 0 0.0 0.0 0.00 0.00 0.00 64 1017.4
20260503185029 12 0 0.0 0.0 0.00 0.00 0.00 62 1017.3
20260503184540 12 0 0.0 0.0 0.00 0.00 0.00 61 1017.4
20260503184027 13 0 0.0 0.0 0.00 0.00 0.00 61 1017.3
20260503183530 13 0 0.0 1.6 0.00 0.00 0.00 59 1017.3
20260503183044 13 0 0.0 1.6 0.00 0.00 0.00 60 1017.3
20260503182526 13 0 0.0 1.6 0.00 0.00 0.00 59 1017.3
20260503182026 13 286 0.0 1.6 0.00 0.00 0.00 59 1017.2
20260503181549 13 0 0.0 1.6 0.00 0.00 0.00 59 1017.2
20260503181026 13 0 0.0 1.6 0.00 0.00 0.00 58 1017.2
20260503180525 14 0 0.0 1.6 0.00 0.00 0.00 57 1017.1
20260503180041 15 0 0.0 3.2 0.00 0.00 0.00 56 1017.1
20260503175525 15 0 0.0 3.2 0.00 0.00 0.00 54 1017.0
20260503175025 16 0 0.0 1.6 0.00 0.00 0.00 52 1017.1
20260503174540 16 0 0.0 4.8 0.00 0.00 0.00 52 1017.0
20260503174027 16 0 0.0 4.8 0.00 0.00 0.00 49 1017.0
20260503173525 17 285 0.0 4.8 0.00 0.00 0.00 48 1017.0
20260503173047 17 0 0.0 6.4 0.00 0.00 0.00 48 1017.0
20260503172525 17 282 0.0 6.4 0.00 0.00 0.00 47 1017.1
20260503172025 17 282 3.2 6.4 0.00 0.00 0.00 46 1017.1
20260503171542 18 296 0.0 6.4 0.00 0.00 0.00 47 1016.9
20260503171026 18 298 0.0 4.8 0.00 0.00 0.00 46 1016.9
20260503170527 18 261 0.0 9.7 0.00 0.00 0.00 46 1016.9
20260503150523 19 290 9.7 20.9 0.00 0.00 0.00 37 1016.5
20260503131026 21 183 6.4 14.5 0.00 0.00 0.00 36 1016.8
20260503130525 21 215 4.8 11.3 0.00 0.00 0.00 37 1016.9
20260503110526 21 59 6.4 19.3 0.00 0.00 0.00 32 1018.1
20260503081550 18 83 4.8 11.3 0.00 0.00 0.00 43 1019.1
20260503081027 18 72 1.6 16.1 0.00 0.00 0.00 42 1019.1
20260503080525 17 25 1.6 19.3 0.00 0.00 0.00 45 1019.2
20260503072526 17 309 3.2 11.3 0.00 0.00 0.00 46 1019.2
20260503072026 16 0 1.6 14.5 0.00 0.00 0.00 47 1019.3
20260503071538 16 17 4.8 14.5 0.00 0.00 0.00 46 1019.4
20260503071226 16 320 8.0 14.5 0.00 0.00 0.00 46 1019.2
20260503070525 16 313 3.2 12.9 0.00 0.00 0.00 50 1019.5
20260503060106 13 347 0.0 3.2 0.00 0.00 0.00 59 1019.5
20260503055026 12 49 1.6 8.0 0.00 0.00 0.00 60 1019.5
20260503054554 12 65 3.2 11.3 0.00 0.00 0.00 61 1019.5
20260503054023 12 76 4.8 11.3 0.00 0.00 0.00 61 1019.4
20260503053526 12 40 4.8 11.3 0.00 0.00 0.00 62 1019.4
20260503053043 11 39 6.4 11.3 0.00 0.00 0.00 62 1019.5
20260503052529 11 74 4.8 11.3 0.00 0.00 0.00 63 1019.4
20260503052022 11 60 4.8 11.3 0.00 0.00 0.00 63 1019.6
20260503051539 11 55 6.4 11.3 0.00 0.00 0.00 64 1019.5
20260503051025 10 58 4.8 11.3 0.00 0.00 0.00 64 1019.4
20260503050523 10 46 4.8 11.3 0.00 0.00 0.00 65 1019.3
20260503050039 10 63 6.4 12.9 0.00 0.00 0.00 65 1019.4
20260503045524 10 59 6.4 12.9 0.00 0.00 0.00 65 1019.4
20260503045024 10 53 8.0 14.5 0.00 0.00 0.00 65 1019.4
20260503044539 10 54 8.0 14.5 0.00 0.00 0.00 65 1019.2
20260503044023 10 71 8.0 14.5 0.00 0.00 0.00 64 1019.2
20260503043523 10 69 8.0 12.9 0.00 0.00 0.00 64 1019.1
20260503043037 10 63 6.4 14.5 0.00 0.00 0.00 64 1019.1
20260503042526 10 44 6.4 14.5 0.00 0.00 0.00 63 1019.1
20260503042026 10 34 8.0 14.5 0.00 0.00 0.00 63 1019.1
20260503041539 10 91 8.0 14.5 0.00 0.00 0.00 63 1019.0
20260503041029 10 51 8.0 14.5 0.00 0.00 0.00 63 1019.1
20260503040523 10 58 6.4 12.9 0.00 0.00 0.00 62 1019.2
20260503040042 10 47 8.0 17.7 0.00 0.00 0.00 62 1019.2
20260503035526 10 44 8.0 17.7 0.00 0.00 0.00 62 1019.1
20260503035024 10 41 8.0 14.5 0.00 0.00 0.00 61 1019.1
20260503034539 10 56 8.0 16.1 0.00 0.00 0.00 62 1019.0
20260503034025 10 92 6.4 16.1 0.00 0.00 0.00 62 1019.1
20260503033523 10 31 8.0 16.1 0.00 0.00 0.00 62 1019.1
20260503033038 10 60 6.4 16.1 0.00 0.00 0.00 62 1019.0
20260503032523 10 40 8.0 16.1 0.00 0.00 0.00 62 1019.1
20260503032023 10 86 8.0 16.1 0.00 0.00 0.00 62 1019.1
20260503031543 10 51 8.0 16.1 0.00 0.00 0.00 62 1019.1
20260503031024 10 41 8.0 16.1 0.00 0.00 0.00 62 1019.1
20260503030524 10 45 8.0 14.5 0.00 0.00 0.00 62 1019.0
20260503030047 10 49 8.0 14.5 0.00 0.00 0.00 62 1019.1
20260503025523 10 60 8.0 12.9 0.00 0.00 0.00 61 1019.2
20260503025023 10 32 8.0 12.9 0.00 0.00 0.00 61 1019.1
20260503024541 10 51 8.0 14.5 0.00 0.00 0.00 61 1019.2
20260503024026 10 65 6.4 14.5 0.00 0.00 0.00 62 1019.2
20260503023523 10 39 8.0 14.5 0.00 0.00 0.00 62 1019.3
20260503023039 10 55 8.0 12.9 0.00 0.00 0.00 62 1019.3
20260503022523 10 47 8.0 12.9 0.00 0.00 0.00 62 1019.4
20260503022023 10 58 8.0 14.5 0.00 0.00 0.00 62 1019.4
20260503021538 10 53 8.0 14.5 0.00 0.00 0.00 63 1019.4
20260503021023 10 53 8.0 14.5 0.00 0.00 0.00 63 1019.4
20260503020523 10 29 8.0 17.7 0.00 0.00 0.00 63 1019.4
20260503020230 10 1 8.0 17.7 0.00 0.00 0.00 63 1019.4
20260503015527 10 31 8.0 16.1 0.00 0.00 0.00 62 1019.5
20260503015027 10 74 8.0 14.5 0.00 0.00 0.00 62 1019.4
20260503014544 10 64 8.0 14.5 0.00 0.00 0.00 62 1019.4
20260503014026 10 46 8.0 14.5 0.00 0.00 0.00 63 1019.5
20260503013523 10 60 8.0 17.7 0.00 0.00 0.00 63 1019.6
20260503013041 10 48 9.7 17.7 0.00 0.00 0.00 64 1019.5
20260503012523 10 39 8.0 14.5 0.00 0.00 0.00 64 1019.5
20260503012026 10 34 8.0 14.5 0.00 0.00 0.00 64 1019.5
20260503011539 9 33 8.0 16.1 0.00 0.00 0.00 64 1019.5
20260503011025 9 41 8.0 16.1 0.00 0.00 0.00 64 1019.6
20260503010526 9 53 8.0 16.1 0.00 0.00 0.00 64 1019.6
20260503010039 9 52 8.0 16.1 0.00 0.00 0.00 63 1019.7
20260503005526 9 34 8.0 16.1 0.00 0.00 0.00 63 1019.7
20260503005028 10 46 8.0 16.1 0.00 0.00 0.00 63 1019.8
20260503004537 10 32 8.0 16.1 0.00 0.00 0.00 62 1019.8
20260503004027 10 51 8.0 17.7 0.00 0.00 0.00 61 1019.8
20260503003526 10 35 9.7 17.7 0.00 0.00 0.00 61 1019.8
20260503003043 10 60 8.0 16.1 0.00 0.00 0.00 61 1019.8
20260503002526 10 66 8.0 16.1 0.00 0.00 0.00 61 1019.8
20260503002026 10 48 8.0 16.1 0.00 0.00 0.00 61 1020.0
20260503001541 10 46 8.0 14.5 0.00 0.00 0.00 61 1019.9
20260503001026 10 62 8.0 14.5 0.00 0.00 0.00 61 1020.0
20260503000525 10 40 6.4 16.1 0.00 0.00 0.00 61 1020.0
20260503000040 10 18 6.4 16.1 0.00 0.00 0.00 61 1020.0
20260502235526 10 40 6.4 12.9 0.00 0.00 0.00 60 1020.1
20260502235026 10 58 6.4 14.5 0.00 0.00 0.00 60 1020.1
20260502234549 10 41 6.4 14.5 0.00 0.00 0.00 60 1020.1
20260502234028 10 50 6.4 11.3 0.00 0.00 0.00 60 1020.2
20260502233527 10 57 6.4 14.5 0.00 0.00 0.00 59 1020.2
20260502233037 10 41 6.4 16.1 0.00 0.00 0.00 59 1020.1
20260502232526 11 68 6.4 16.1 0.00 0.00 0.00 58 1020.3
20260502232026 11 58 6.4 14.5 0.00 0.00 0.00 58 1020.3
20260502231536 11 42 6.4 14.5 0.00 0.00 0.00 58 1020.2
20260502231025 11 53 6.4 14.5 0.00 0.00 0.00 57 1020.3